TimeCST,TemperatureF,Dew PointF,Humidity,Sea Level PressureIn,VisibilityMPH,Wind Direction,Wind SpeedMPH,Gust SpeedMPH,PrecipitationIn,Events,Conditions,WindDirDegrees,DateUTC
12:53 AM,64.0,60.1,87,29.57,10.0,SW,4.6,-,N/A,,Overcast,220,2013-02-26 06:53:00
1:53 AM,61.0,54.0,78,29.56,10.0,Variable,5.8,-,N/A,,Clear,0,2013-02-26 07:53:00
2:53 AM,59.0,50.0,72,29.58,10.0,SW,4.6,-,N/A,,Clear,230,2013-02-26 08:53:00
3:22 AM,57.2,48.2,72,29.58,10.0,Variable,5.8,-,N/A,,Clear,0,2013-02-26 09:22:00
3:53 AM,57.9,46.9,67,29.59,10.0,West,5.8,-,N/A,,Clear,260,2013-02-26 09:53:00
4:53 AM,55.9,44.1,64,29.61,10.0,WSW,6.9,-,N/A,,Clear,250,2013-02-26 10:53:00
5:53 AM,52.0,45.0,77,29.64,10.0,Calm,Calm,-,N/A,,Clear,0,2013-02-26 11:53:00
6:53 AM,51.1,42.1,71,29.68,10.0,Calm,Calm,-,N/A,,Clear,0,2013-02-26 12:53:00
7:53 AM,52.0,37.0,57,29.72,10.0,West,10.4,17.3,N/A,,Clear,260,2013-02-26 13:53:00
8:53 AM,52.0,37.0,57,29.74,10.0,West,12.7,20.7,N/A,,Partly Cloudy,270,2013-02-26 14:53:00
9:53 AM,54.0,37.9,55,29.75,10.0,WSW,10.4,18.4,N/A,,Clear,250,2013-02-26 15:53:00
10:53 AM,55.9,37.9,51,29.78,10.0,West,10.4,20.7,N/A,,Partly Cloudy,270,2013-02-26 16:53:00
11:53 AM,57.9,37.0,46,29.77,10.0,West,12.7,18.4,N/A,,Partly Cloudy,270,2013-02-26 17:53:00
12:53 PM,60.1,37.9,44,29.75,10.0,WSW,6.9,17.3,N/A,,Clear,250,2013-02-26 18:53:00
1:53 PM,61.0,39.0,44,29.73,10.0,WSW,9.2,-,N/A,,Clear,250,2013-02-26 19:53:00
2:53 PM,61.0,41.0,48,29.73,10.0,SW,5.8,-,N/A,,Clear,220,2013-02-26 20:53:00
3:53 PM,57.9,41.0,53,29.75,10.0,SSW,10.4,18.4,N/A,,Clear,210,2013-02-26 21:53:00
4:53 PM,55.9,41.0,57,29.78,10.0,WSW,6.9,19.6,N/A,,Clear,240,2013-02-26 22:53:00
5:53 PM,54.0,41.0,62,29.81,10.0,WSW,9.2,-,N/A,,Clear,240,2013-02-26 23:53:00
6:53 PM,53.1,41.0,64,29.86,10.0,Variable,4.6,-,N/A,,Clear,0,2013-02-27 00:53:00
7:53 PM,53.1,42.1,66,29.88,10.0,WSW,5.8,-,N/A,,Clear,240,2013-02-27 01:53:00
8:53 PM,53.1,43.0,69,29.90,10.0,West,5.8,-,N/A,,Clear,260,2013-02-27 02:53:00
9:53 PM,52.0,44.1,74,29.93,10.0,SW,4.6,-,N/A,,Clear,230,2013-02-27 03:53:00
10:53 PM,51.1,44.1,77,29.94,10.0,Calm,Calm,-,N/A,,Clear,0,2013-02-27 04:53:00
11:53 PM,50.0,44.1,80,29.95,10.0,Calm,Calm,-,N/A,,Clear,0,2013-02-27 05:53:00